Weather History for Galax, VA

Change the Weather History Date:

Sunday, February 23, 2014

  Actual Average (KBLF) Record (KBLF)
Temperature  
Mean Temperature 52 °F 39 °F  
Max Temperature 62 °F 48 °F 74 °F (1975)
Min Temperature 41 °F 31 °F 5 °F (1963)
Degree Days  
Heating Degree Days 13 26  
Month to date heating degree days 647  
Since 1 July heating degree days 3367  
Cooling Degree Days 0 0  
Month to date cooling degree days 0  
Year to date cooling degree days 0  
Growing Degree Days 2 (Base 50)    
Moisture  
Dew Point 10 °F    
Average Humidity 23    
Maximum Humidity 57    
Minimum Humidity 8    
Precipitation  
Precipitation 0.00 in 0.10 in 0.63 in (1998)
Month to date precipitation 2.24  
Year to date precipitation 5.14  
Snow  
Snow 0.00 in - - ()
Month to date snowfall  
Since 1 July snowfall  
Snow Depth -    
Sea Level Pressure  
Sea Level Pressure 30.01 in    
Wind  
Wind Speed 7 mph (WSW)    
Max Wind Speed 16 mph    
Max Gust Speed 20 mph    
Visibility 10 miles    
Events      
T = Trace of Precipitation, MM = Missing Value Source: NWS Daily Summary

Daily Weather History Graph

Daily Weather History Graph

Search for Another Location

Airport:

Trip Planner

Search our weather history database for the weather conditions in past years. The results will help you decide how hot, cold, wet, or windy it might be!

Date:

Astronomy

Feb. 23, 2014 Rise Set
Actual Time 7:01 AM EST 6:11 PM EST
Civil Twilight 6:35 AM EST 6:38 PM EST
Nautical Twilight 6:05 AM EST 7:08 PM EST
Astronomical Twilight 5:35 AM EST 7:38 PM EST
Moon 1:54 AM EST 12:17 PM EST
Length of Visible Light 12h 02m
Length of Day
11h 09m
Last Quarter, 39% of the Moon is Illuminated
Feb 23
Last Quarter
Mar 1
New
Mar 8
First Quarter
Mar 16
Full
Mar 23
Last Quarter

Hourly Weather History & Observations

Time (EST) Temp. Windchill Dew Point Humidity Pressure Visibility Wind Dir Wind Speed Gust Speed Precip Events Conditions
12:15 AM 44.6 °F 40.7 °F 10.4 °F 25% 30.09 in 10.0 mi South 6.9 mph - N/A   Clear
12:35 AM 44.6 °F 39.7 °F 12.2 °F 27% 30.08 in 10.0 mi South 9.2 mph - N/A   Clear
12:55 AM 44.6 °F 40.7 °F 12.2 °F 27% 30.08 in 10.0 mi South 6.9 mph - N/A   Clear
1:15 AM 44.6 °F 42.2 °F 12.2 °F 27% 30.08 in 10.0 mi SSW 4.6 mph - N/A   Clear
1:35 AM 44.6 °F 41.4 °F 12.2 °F 27% 30.08 in 10.0 mi South 5.8 mph - N/A   Clear
1:55 AM 44.6 °F 40.2 °F 12.2 °F 27% 30.07 in 10.0 mi South 8.1 mph - N/A   Clear
2:20 AM 44.6 °F 40.7 °F 12.2 °F 27% 30.07 in 10.0 mi South 6.9 mph - N/A   Clear
2:35 AM 44.6 °F 40.7 °F 12.2 °F 27% 30.07 in 10.0 mi South 6.9 mph - N/A   Clear
2:55 AM 42.8 °F 37.5 °F 12.2 °F 29% 30.07 in 10.0 mi South 9.2 mph - N/A   Clear
3:15 AM 42.8 °F 39.3 °F 12.2 °F 29% 30.07 in 10.0 mi South 5.8 mph - N/A   Clear
3:35 AM 42.8 °F 39.3 °F 12.2 °F 29% 30.06 in 10.0 mi South 5.8 mph - N/A   Clear
3:55 AM 42.8 °F 38.6 °F 12.2 °F 29% 30.06 in 10.0 mi South 6.9 mph - N/A   Clear
4:15 AM 42.8 °F 38.6 °F 12.2 °F 29% 30.05 in 10.0 mi South 6.9 mph - N/A   Clear
4:35 AM 42.8 °F 39.3 °F 12.2 °F 29% 30.06 in 10.0 mi South 5.8 mph - N/A   Clear
4:55 AM 42.8 °F - 12.2 °F 29% 30.06 in 10.0 mi Calm Calm - N/A   Clear
5:15 AM 42.8 °F 37.5 °F 10.4 °F 27% 30.06 in 10.0 mi SSW 9.2 mph - N/A   Clear
5:35 AM 42.8 °F 38.0 °F 12.2 °F 29% 30.06 in 10.0 mi SSW 8.1 mph - N/A   Clear
5:55 AM 42.8 °F 39.3 °F 12.2 °F 29% 30.06 in 10.0 mi SSW 5.8 mph - N/A   Clear
6:15 AM 42.8 °F 38.6 °F 12.2 °F 29% 30.06 in 10.0 mi SSW 6.9 mph - N/A   Clear
6:35 AM 42.8 °F 39.3 °F 12.2 °F 29% 30.06 in 10.0 mi South 5.8 mph - N/A   Clear
7:00 AM 42.8 °F 39.3 °F 12.2 °F 29% 30.06 in 10.0 mi South 5.8 mph - N/A   Clear
7:15 AM 42.8 °F 40.1 °F 12.2 °F 29% 30.07 in 10.0 mi SW 4.6 mph - N/A   Clear
7:35 AM 42.8 °F 40.1 °F 12.2 °F 29% 30.07 in 10.0 mi SW 4.6 mph - N/A   Clear
7:55 AM 42.8 °F 41.1 °F 12.2 °F 29% 30.07 in 10.0 mi SW 3.5 mph - N/A   Clear
8:15 AM 42.8 °F 39.3 °F 12.2 °F 29% 30.07 in 10.0 mi SW 5.8 mph - N/A   Clear
8:35 AM 42.8 °F 39.3 °F 12.2 °F 29% 30.07 in 10.0 mi SSW 5.8 mph - N/A   Clear
8:55 AM 42.8 °F 40.1 °F 14.0 °F 31% 30.07 in 10.0 mi SSW 4.6 mph - N/A   Clear
9:15 AM 46.4 °F 44.3 °F 15.8 °F 29% 30.07 in 10.0 mi SSW 4.6 mph - N/A   Clear
9:35 AM 46.4 °F 42.9 °F 14.0 °F 27% 30.07 in 10.0 mi SSW 6.9 mph - N/A   Clear
9:55 AM 48.2 °F - 14.0 °F 25% 30.06 in 10.0 mi SW 4.6 mph - N/A   Clear
10:15 AM 51.8 °F - 5.0 °F 15% 30.04 in 10.0 mi SW 9.2 mph - N/A   Clear
10:35 AM 51.8 °F - 1.4 °F 13% 30.03 in 10.0 mi WSW 9.2 mph - N/A   Clear
10:55 AM 53.6 °F - -0.4 °F 11% 30.03 in 10.0 mi SSW 8.1 mph - N/A   Clear
11:15 AM 55.4 °F - 1.4 °F 11% 30.04 in 10.0 mi SW 10.4 mph - N/A   Clear
11:35 AM 55.4 °F - 1.4 °F 11% 30.03 in 10.0 mi WSW 5.8 mph - N/A   Clear
11:55 AM 55.4 °F - 3.2 °F 12% 30.02 in 10.0 mi Calm Calm - N/A   Clear
12:15 PM 57.2 °F - 3.2 °F 11% 30.01 in 10.0 mi West 5.8 mph - N/A   Clear
12:35 PM 59.0 °F - 3.2 °F 11% 30.00 in 10.0 mi West 6.9 mph - N/A   Clear
12:55 PM 60.8 °F - 5.0 °F 11% 30.00 in 10.0 mi SW 9.2 mph - N/A   Clear
1:15 PM 60.8 °F - 5.0 °F 11% 29.99 in 10.0 mi SW 6.9 mph 10.4 mph N/A   Clear
1:35 PM 60.8 °F - 3.2 °F 10% 29.97 in 10.0 mi SW 10.4 mph 18.4 mph N/A   Clear
1:55 PM 60.8 °F - 3.2 °F 10% 29.97 in 10.0 mi North 5.8 mph - N/A   Clear
2:15 PM 60.8 °F - -2.2 °F 8% 29.96 in 10.0 mi WNW 16.1 mph 19.6 mph N/A   Clear
2:35 PM 60.8 °F - -2.2 °F 8% 29.95 in 10.0 mi NW 8.1 mph - N/A   Clear
2:55 PM 60.8 °F - -0.4 °F 8% 29.95 in 10.0 mi WNW 10.4 mph - N/A   Clear
3:15 PM 62.6 °F - -0.4 °F 8% 29.94 in 10.0 mi Calm Calm - N/A   Clear
3:35 PM 62.6 °F - -0.4 °F 8% 29.93 in 10.0 mi West 5.8 mph - N/A   Clear
3:55 PM 62.6 °F - 1.4 °F 9% 29.93 in 10.0 mi NW 8.1 mph - N/A   Clear
4:15 PM 62.6 °F - 3.2 °F 9% 29.93 in 10.0 mi SW 4.6 mph - N/A   Clear
4:35 PM 62.6 °F - 3.2 °F 9% 29.93 in 10.0 mi NW 4.6 mph 10.4 mph N/A   Clear
4:55 PM 60.8 °F - 6.8 °F 12% 29.93 in 10.0 mi WNW 8.1 mph - N/A   Clear
5:15 PM 59.0 °F - 8.6 °F 14% 29.92 in 10.0 mi NW 9.2 mph - N/A   Scattered Clouds
5:35 PM 59.0 °F - 10.4 °F 15% 29.92 in 10.0 mi NW 13.8 mph - N/A   Clear
5:55 PM 57.2 °F - 10.4 °F 16% 29.93 in 10.0 mi WNW 6.9 mph - N/A   Mostly Cloudy
6:15 PM 57.2 °F - 10.4 °F 16% 29.93 in 10.0 mi West 9.2 mph - N/A   Overcast
6:35 PM 57.2 °F - 10.4 °F 16% 29.94 in 10.0 mi West 6.9 mph - N/A   Overcast
6:55 PM 55.4 °F - 10.4 °F 17% 29.94 in 10.0 mi West 9.2 mph 16.1 mph N/A   Overcast
7:15 PM 55.4 °F - 10.4 °F 17% 29.95 in 10.0 mi WSW 4.6 mph - N/A   Overcast
7:35 PM 55.4 °F - 10.4 °F 17% 29.94 in 10.0 mi West 3.5 mph - N/A   Mostly Cloudy
7:55 PM 55.4 °F - 10.4 °F 17% 29.94 in 10.0 mi WSW 6.9 mph - N/A   Overcast
8:15 PM 55.4 °F - 12.2 °F 18% 29.94 in 10.0 mi SW 4.6 mph - N/A   Mostly Cloudy
8:35 PM 55.4 °F - 12.2 °F 18% 29.94 in 10.0 mi WSW 4.6 mph - N/A   Scattered Clouds
8:55 PM 53.6 °F - 12.2 °F 19% 29.93 in 10.0 mi SW 4.6 mph - N/A   Scattered Clouds
9:15 PM 53.6 °F - 12.2 °F 19% 29.93 in 10.0 mi WSW 3.5 mph - N/A   Scattered Clouds
9:35 PM 53.6 °F - 12.2 °F 19% 29.93 in 10.0 mi West 4.6 mph - N/A   Clear
9:55 PM 50.0 °F - 19.4 °F 30% 29.94 in 10.0 mi NNW 13.8 mph - N/A   Scattered Clouds
10:15 PM 46.4 °F 41.1 °F 23.0 °F 40% 29.95 in 10.0 mi NNW 11.5 mph 15.0 mph N/A   Clear
10:35 PM 44.6 °F 38.8 °F 24.8 °F 46% 29.95 in 10.0 mi NNW 11.5 mph - N/A   Clear
10:55 PM 42.8 °F 38.6 °F 24.8 °F 49% 29.97 in 10.0 mi NNW 6.9 mph - N/A   Clear
11:15 PM 42.8 °F 35.8 °F 24.8 °F 49% 29.98 in 10.0 mi NNW 13.8 mph - N/A   Clear
11:35 PM 42.8 °F 36.6 °F 24.8 °F 49% 29.99 in 10.0 mi NNW 11.5 mph - N/A   Clear
11:55 PM 41.0 °F 35.8 °F 26.6 °F 57% 29.98 in 10.0 mi NNW 8.1 mph - N/A   Clear